Location: Unspecified
(0.0000°N, 0.0000°E)
Time: 00:37:58
(UTC+00:00)

Tiros 1 despin weight - Pass Details

Date: 09 October 2020
Orbit: 594 x 641 km, 48.2° (Epoch: 25 October)

Event Time Altitude Azimuth Distance (km) Brightness Sun altitude
Exits shadow 04:57:14 11° 237° (WSW) 1,888 ? -12.4°
Maximum altitude 05:01:21 45° 309° (NW) 814 ? -11.4°
Drops below altitude 10° 05:05:32 10° 22° (NNE) 1,912 ? -10.4°
Sets 05:07:53 0° 28° (NNE) 2,810 ? -9.8°
